This is the latest recevied weather packets stored in our database for station/object SQ3RAX-13. If no packets are shown the sender has not sent any weather packets the latest 10 day(s).
| Time | Temp. | Humidity | Pressure | Rain* | Wind** | Luminosity | Snow |
|---|---|---|---|---|---|---|---|
| 1777661700 | 16.67° C | 50% | 1026 hPa | 0 mm | - | - | - |
| 1777661100 | 16.67° C | 50% | 1026 hPa | 0 mm | - | - | - |
| 1777660500 | 16.67° C | 49% | 1026 hPa | 0 mm | - | - | - |
| 1777659900 | 18.89° C | 34% | 1025 hPa | 0 mm | - | - | - |
| 1777659300 | 18.89° C | 34% | 1025 hPa | 0 mm | - | - | - |
| 1777658700 | 18.33° C | 47% | 1025 hPa | 0 mm | - | - | - |
| 1777658100 | 18.89° C | 45% | 1025 hPa | 0 mm | - | - | - |
| 1777657500 | 18.89° C | 45% | 1025 hPa | 0 mm | - | - | - |
| 1777656900 | 18.89° C | 45% | 1025 hPa | 0 mm | - | - | - |
| 1777656300 | 21.11° C | 34% | 1025 hPa | 0 mm | - | - | - |
| 1777655700 | 21.11° C | 34% | 1025 hPa | 0 mm | - | - | - |
| 1777655100 | 20.56° C | 43% | 1025 hPa | 0 mm | - | - | - |
| 1777654500 | 20.56° C | 42% | 1025 hPa | 0 mm | - | - | - |
| 1777653900 | 20.56° C | 42% | 1025 hPa | 0 mm | - | - | - |
| 1777653300 | 21.67° C | 27% | 1025 hPa | 0 mm | - | - | - |
| 1777652700 | 21.67° C | 27% | 1025 hPa | 0 mm | - | - | - |
| 1777652100 | 21.67° C | 27% | 1025 hPa | 0 mm | - | - | - |
| 1777651500 | 21.67° C | 42% | 1026 hPa | 0 mm | - | - | - |
| 1777650900 | 21.67° C | 42% | 1026 hPa | 0 mm | - | - | - |
| 1777650300 | 21.67° C | 41% | 1026 hPa | 0 mm | - | - | - |
| 1777649700 | 21.67° C | 38% | 1026 hPa | 0 mm | - | - | - |
| 1777649100 | 22.22° C | 29% | 1026 hPa | 0 mm | - | - | - |
| 1777648500 | 22.22° C | 30% | 1026 hPa | 0 mm | - | - | - |
| 1777647900 | 21.67° C | 34% | 1026 hPa | 0 mm | - | - | - |
| 1777647300 | 21.67° C | 34% | 1026 hPa | 0 mm | - | - | - |
* Rain latest hour (hover to see other rain measurements)
** Current wind speed in m/s (hover to see current wind gust speed)